• In Netherlands
  • List of Countries
  • For 7 days
  • Water Temperature
  • Satellite Maps
  • Weather Map
  • Weather Widgets
  • user-avatar
    Login

    Hourly Weather Neuquén

    Today, 28 June, Wednesday

    Time Temperature Precipitation Wind Pressure Humidity
    00:00 +5°C° 0 mm 3 mps 738 mmHg 85%
    01:00 +5°C° 0 mm 3 mps 737 mmHg 86%
    02:00 +5°C° 0 mm 3 mps 737 mmHg 85%
    03:00 +5°C° 0 mm 3 mps 737 mmHg 85%
    04:00 +5°C° 0 mm 3 mps 736 mmHg 84%
    05:00 +5°C° 0 mm 3 mps 736 mmHg 84%
    06:00 +5°C° 0 mm 3 mps 736 mmHg 84%
    07:00 +5°C° 0 mm 3 mps 736 mmHg 84%
    08:00 +7°C° 0 mm 4 mps 736 mmHg 76%
    09:00 +10°C° 0 mm 4 mps 736 mmHg 67%
    10:00 +12°C° 0 mm 5 mps 736 mmHg 59%
    11:00 +13°C° 0 mm 5 mps 736 mmHg 54%
    12:00 +14°C° 0 mm 5 mps 735 mmHg 49%
    13:00 +15°C° 0 mm 5 mps 735 mmHg 44%
    14:00 +14°C° 0 mm 4 mps 734 mmHg 47%
    15:00 +13°C° 0 mm 4 mps 734 mmHg 50%
    16:00 +12°C° 0 mm 3 mps 734 mmHg 53%
    17:00 +11°C° 0 mm 3 mps 734 mmHg 55%
    18:00 +10°C° 0 mm 3 mps 734 mmHg 57%
    19:00 +9°C° 0 mm 3 mps 734 mmHg 58%
    20:00 +9°C° 0 mm 3 mps 734 mmHg 58%
    21:00 +9°C° 0 mm 3 mps 734 mmHg 57%
    22:00 +8°C° 0 mm 4 mps 734 mmHg 57%
    23:00 +8°C° 0 mm 4 mps 734 mmHg 58%

    Tomorrow, 29 June, Thursday

    Time Temperature Precipitation Wind Pressure Humidity
    00:00 +8°C° 0 mm 4 mps 734 mmHg 59%
    01:00 +7°C° 0 mm 4 mps 733 mmHg 60%
    02:00 +7°C° 0 mm 4 mps 733 mmHg 58%
    03:00 +7°C° 0 mm 5 mps 732 mmHg 57%
    04:00 +7°C° 0 mm 5 mps 732 mmHg 56%
    05:00 +7°C° 0 mm 5 mps 732 mmHg 53%
    06:00 +8°C° 0 mm 6 mps 732 mmHg 50%
    07:00 +8°C° 0 mm 6 mps 732 mmHg 46%
    08:00 +10°C° 0 mm 8 mps 733 mmHg 43%
    09:00 +12°C° 0 mm 9 mps 733 mmHg 39%
    10:00 +16°C° 0 mm 11 mps 733 mmHg 36%
    11:00 +16°C° 0 mm 10 mps 733 mmHg 38%
    12:00 +16°C° 0 mm 9 mps 733 mmHg 39%
    13:00 +17°C° 0 mm 8 mps 732 mmHg 41%
    14:00 +16°C° 0 mm 7 mps 733 mmHg 43%
    15:00 +15°C° 0 mm 6 mps 733 mmHg 46%
    16:00 +14°C° 0 mm 5 mps 734 mmHg 49%
    17:00 +13°C° 0 mm 5 mps 734 mmHg 51%
    18:00 +13°C° 0 mm 4 mps 735 mmHg 54%
    19:00 +12°C° 0 mm 4 mps 735 mmHg 56%
    20:00 +11°C° 0.2 mm 4 mps 736 mmHg 59%
    21:00 +11°C° 0.2 mm 4 mps 736 mmHg 62%
    22:00 +10°C° 0.2 mm 5 mps 737 mmHg 64%
    23:00 +10°C° 1 mm 4 mps 737 mmHg 67%

    Day after tomorrow, 30 June, Friday

    Time Temperature Precipitation Wind Pressure Humidity
    00:00 +10°C° 1 mm 3 mps 737 mmHg 70%
    01:00 +10°C° 1 mm 3 mps 738 mmHg 73%
    02:00 +9°C° 0.5 mm 3 mps 738 mmHg 76%
    03:00 +9°C° 0.5 mm 2 mps 738 mmHg 79%
    04:00 +9°C° 0.5 mm 2 mps 738 mmHg 82%
    05:00 +8°C° 0.1 mm 2 mps 738 mmHg 83%
    06:00 +8°C° 0.1 mm 2 mps 739 mmHg 84%
    07:00 +8°C° 0.1 mm 2 mps 739 mmHg 86%
    08:00 +9°C° 0 mm 2 mps 739 mmHg 81%
    09:00 +10°C° 0 mm 2 mps 740 mmHg 75%
    10:00 +11°C° 0 mm 3 mps 740 mmHg 70%
    11:00 +12°C° 0 mm 3 mps 739 mmHg 67%
    12:00 +12°C° 0 mm 3 mps 739 mmHg 64%
    13:00 +13°C° 0 mm 3 mps 738 mmHg 62%
    14:00 +13°C° 0 mm 3 mps 738 mmHg 64%
    15:00 +12°C° 0 mm 3 mps 738 mmHg 67%
    16:00 +12°C° 0 mm 3 mps 738 mmHg 69%
    17:00 +11°C° 0 mm 3 mps 739 mmHg 72%
    18:00 +11°C° 0 mm 3 mps 739 mmHg 75%
    19:00 +10°C° 0 mm 4 mps 740 mmHg 79%
    20:00 +10°C° 0 mm 4 mps 740 mmHg 79%
    21:00 +10°C° 0 mm 4 mps 740 mmHg 78%
    22:00 +8°C° 0 mm 5 mps 740 mmHg 78%
    23:00 +8°C° 0 mm 4 mps 740 mmHg 80%

    1 July, Saturday

    Time Temperature Precipitation Wind Pressure Humidity
    00:00 +9°C° 0 mm 3 mps 740 mmHg 81%
    01:00 +9°C° 0 mm 2 mps 740 mmHg 83%
    02:00 +8°C° 0 mm 2 mps 739 mmHg 84%
    03:00 +8°C° 0 mm 3 mps 739 mmHg 85%
    04:00 +8°C° 0 mm 3 mps 739 mmHg 86%
    05:00 +8°C° 0 mm 3 mps 739 mmHg 86%
    06:00 +7°C° 0 mm 3 mps 739 mmHg 86%
    07:00 +7°C° 0 mm 3 mps 739 mmHg 86%
    08:00 +8°C° 0 mm 4 mps 739 mmHg 77%
    09:00 +10°C° 0 mm 4 mps 739 mmHg 69%
    10:00 +12°C° 0 mm 5 mps 739 mmHg 61%
    11:00 +13°C° 0 mm 5 mps 738 mmHg 57%
    12:00 +14°C° 0 mm 6 mps 738 mmHg 53%
    13:00 +15°C° 0 mm 6 mps 737 mmHg 48%
    14:00 +14°C° 0 mm 5 mps 737 mmHg 52%
    15:00 +14°C° 0 mm 5 mps 737 mmHg 56%
    16:00 +13°C° 0 mm 4 mps 736 mmHg 60%
    17:00 +12°C° 0 mm 5 mps 736 mmHg 64%
    18:00 +10°C° 0 mm 5 mps 736 mmHg 69%
    19:00 +10°C° 0 mm 5 mps 736 mmHg 73%
    20:00 +9°C° 0 mm 5 mps 736 mmHg 75%
    21:00 +10°C° 0 mm 4 mps 736 mmHg 76%
    22:00 +10°C° 0 mm 4 mps 736 mmHg 78%
    23:00 +8°C° 0 mm 4 mps 735 mmHg 79%

    2 July, Sunday

    Time Temperature Precipitation Wind Pressure Humidity
    00:00 +8°C° 0 mm 4 mps 735 mmHg 80%
    01:00 +8°C° 0 mm 5 mps 734 mmHg 81%
    02:00 +8°C° 0 mm 4 mps 734 mmHg 83%
    03:00 +9°C° 0 mm 3 mps 734 mmHg 84%
    04:00 +8°C° 0 mm 3 mps 734 mmHg 86%
    05:00 +8°C° 0 mm 3 mps 734 mmHg 86%
    06:00 +8°C° 0 mm 2 mps 734 mmHg 87%
    07:00 +8°C° 0 mm 2 mps 734 mmHg 87%
    08:00 +9°C° 0 mm 3 mps 734 mmHg 78%
    09:00 +11°C° 0 mm 3 mps 734 mmHg 69%
    10:00 +13°C° 0 mm 3 mps 734 mmHg 61%
    11:00 +15°C° 0 mm 4 mps 733 mmHg 56%
    12:00 +17°C° 0 mm 4 mps 733 mmHg 51%
    13:00 +18°C° 0 mm 4 mps 732 mmHg 46%
    14:00 +17°C° 0 mm 4 mps 732 mmHg 50%
    15:00 +15°C° 0 mm 4 mps 732 mmHg 53%
    16:00 +14°C° 0 mm 3 mps 731 mmHg 57%
    17:00 +14°C° 0 mm 4 mps 731 mmHg 61%
    18:00 +13°C° 0 mm 4 mps 731 mmHg 66%
    19:00 +12°C° 0 mm 5 mps 731 mmHg 70%
    20:00 +12°C° 0 mm 5 mps 730 mmHg 72%
    21:00 +12°C° 0 mm 5 mps 730 mmHg 75%
    22:00 +12°C° 0 mm 5 mps 729 mmHg 77%
    23:00 +10°C° 0 mm 5 mps 729 mmHg 78%

    3 July, Monday

    Time Temperature Precipitation Wind Pressure Humidity
    00:00 +11°C° 0 mm 4 mps 729 mmHg 79%
    01:00 +11°C° 0 mm 4 mps 728 mmHg 81%
    02:00 +11°C° 0 mm 4 mps 728 mmHg 81%
    03:00 +10°C° 0 mm 3 mps 728 mmHg 81%
    04:00 +10°C° 0 mm 3 mps 727 mmHg 81%
    05:00 +10°C° 0 mm 2 mps 728 mmHg 82%
    06:00 +10°C° 0 mm 2 mps 728 mmHg 82%
    07:00 +9°C° 0 mm 2 mps 728 mmHg 82%
    08:00 +12°C° 0 mm 2 mps 728 mmHg 74%
    09:00 +14°C° 0 mm 2 mps 729 mmHg 66%
    10:00 +15°C° 0 mm 2 mps 729 mmHg 58%
    11:00 +16°C° 0 mm 2 mps 729 mmHg 54%
    12:00 +17°C° 0 mm 2 mps 729 mmHg 50%
    13:00 +18°C° 0 mm 3 mps 729 mmHg 46%
    14:00 +17°C° 0 mm 3 mps 729 mmHg 50%
    15:00 +16°C° 0 mm 3 mps 729 mmHg 54%
    16:00 +16°C° 0 mm 3 mps 730 mmHg 58%
    17:00 +14°C° 0 mm 3 mps 730 mmHg 63%
    18:00 +13°C° 0 mm 3 mps 730 mmHg 67%
    19:00 +13°C° 0 mm 3 mps 730 mmHg 72%
    20:00 +12°C° 0 mm 3 mps 730 mmHg 76%
    21:00 +12°C° 0 mm 4 mps 731 mmHg 81%
    22:00 +12°C° 0 mm 4 mps 731 mmHg 85%
    23:00 +10°C° 0 mm 5 mps 732 mmHg 77%
    Show more